TimeEST,TemperatureF,Dew PointF,Humidity,Sea Level PressureIn,VisibilityMPH,Wind Direction,Wind SpeedMPH,Gust SpeedMPH,PrecipitationIn,Events,Conditions,WindDirDegrees,DateUTC
12:51 AM,57.9,53.1,84,30.30,10.0,NE,13.8,23.0,N/A,,Overcast,50,2012-11-18 05:51:00
1:51 AM,57.9,54.0,87,30.30,9.0,NE,13.8,24.2,N/A,,Scattered Clouds,50,2012-11-18 06:51:00
2:14 AM,57.2,53.6,88,30.29,9.0,NE,13.8,25.3,N/A,,Mostly Cloudy,50,2012-11-18 07:14:00
2:22 AM,59.0,53.6,82,30.29,9.0,NE,13.8,24.2,N/A,,Overcast,50,2012-11-18 07:22:00
2:51 AM,59.0,54.0,83,30.29,9.0,NE,13.8,25.3,N/A,,Mostly Cloudy,50,2012-11-18 07:51:00
3:51 AM,59.0,54.0,83,30.27,9.0,NE,16.1,25.3,N/A,,Overcast,50,2012-11-18 08:51:00
4:51 AM,59.0,54.0,83,30.28,9.0,NE,13.8,27.6,N/A,,Mostly Cloudy,50,2012-11-18 09:51:00
5:51 AM,57.9,54.0,87,30.29,9.0,NE,17.3,26.5,0.00,Rain,Light Rain,50,2012-11-18 10:51:00
6:51 AM,57.9,54.0,87,30.29,7.0,NE,12.7,27.6,0.01,Rain,Light Rain,50,2012-11-18 11:51:00
7:51 AM,57.9,54.0,87,30.30,7.0,NE,15.0,27.6,0.01,,Overcast,50,2012-11-18 12:51:00
8:51 AM,57.9,54.0,87,30.30,6.0,NE,16.1,31.1,0.00,Rain,Light Rain,50,2012-11-18 13:51:00
9:51 AM,59.0,54.0,83,30.30,8.0,NE,15.0,29.9,0.00,,Overcast,40,2012-11-18 14:51:00
10:51 AM,59.0,55.0,87,30.29,7.0,NE,20.7,29.9,0.01,Rain,Light Rain,50,2012-11-18 15:51:00
11:42 AM,57.2,55.4,94,30.26,1.8,NE,15.0,29.9,0.03,Rain,Heavy Rain,40,2012-11-18 16:42:00
11:49 AM,57.9,55.9,93,30.26,3.0,NE,16.1,27.6,0.04,Rain,Light Rain,50,2012-11-18 16:49:00
12:02 PM,57.2,55.4,94,30.26,6.0,NE,13.8,27.6,0.00,,Overcast,50,2012-11-18 17:02:00
12:11 PM,59.0,55.4,88,30.25,7.0,NE,13.8,27.6,0.00,,Overcast,50,2012-11-18 17:11:00
12:51 PM,59.0,55.0,87,30.24,7.0,NE,16.1,31.1,0.00,Rain,Light Rain,40,2012-11-18 17:51:00
1:32 PM,59.0,55.4,88,30.23,7.0,NE,16.1,29.9,0.00,Rain,Light Rain,50,2012-11-18 18:32:00
1:51 PM,59.0,55.0,87,30.23,6.0,NE,12.7,29.9,0.00,Rain,Light Rain,50,2012-11-18 18:51:00
2:12 PM,59.0,55.4,88,30.22,8.0,NE,13.8,27.6,0.00,,Overcast,50,2012-11-18 19:12:00
2:51 PM,59.0,55.0,87,30.22,8.0,NE,11.5,29.9,0.00,,Overcast,40,2012-11-18 19:51:00
2:59 PM,59.0,55.4,88,30.21,7.0,NE,16.1,33.4,N/A,,Overcast,40,2012-11-18 19:59:00
3:51 PM,60.1,55.0,83,30.21,7.0,NE,12.7,31.1,N/A,,Overcast,50,2012-11-18 20:51:00
4:34 PM,59.0,55.4,88,30.21,6.0,NE,11.5,21.9,N/A,,Overcast,40,2012-11-18 21:34:00
4:51 PM,59.0,55.0,87,30.20,7.0,NE,16.1,24.2,N/A,,Overcast,40,2012-11-18 21:51:00
5:09 PM,59.0,55.4,88,30.21,7.0,NE,11.5,28.8,0.00,Rain,Light Rain,40,2012-11-18 22:09:00
5:18 PM,59.0,55.4,88,30.21,8.0,NE,15.0,26.5,0.00,,Overcast,50,2012-11-18 22:18:00
5:51 PM,59.0,55.9,90,30.21,5.0,NE,13.8,29.9,0.02,Rain,Light Rain,50,2012-11-18 22:51:00
6:51 PM,59.0,55.9,90,30.21,7.0,NE,15.0,26.5,0.01,,Overcast,40,2012-11-18 23:51:00
7:13 PM,59.0,55.4,88,30.21,7.0,NE,13.8,26.5,N/A,,Overcast,40,2012-11-19 00:13:00
7:51 PM,59.0,55.9,90,30.21,6.0,NE,13.8,23.0,0.00,Rain,Light Rain,50,2012-11-19 00:51:00
8:51 PM,59.0,55.9,90,30.20,7.0,NE,12.7,21.9,0.01,,Overcast,40,2012-11-19 01:51:00
9:51 PM,59.0,55.9,90,30.19,6.0,NE,15.0,27.6,0.00,Rain,Light Rain,40,2012-11-19 02:51:00
10:51 PM,59.0,57.0,93,30.18,7.0,NE,12.7,24.2,0.00,,Overcast,40,2012-11-19 03:51:00
11:01 PM,60.8,57.2,88,30.18,7.0,NE,13.8,25.3,N/A,,Overcast,40,2012-11-19 04:01:00
11:51 PM,60.1,57.0,90,30.16,6.0,NE,12.7,25.3,N/A,,Overcast,40,2012-11-19 04:51:00